Location: Neuvy Saint Sepulchre
(46.5953°N, 1.8122°E)
Time: 09:29:59
(UTC+02:00)

ISS - Pass Details

Date: 10 July 2021
Orbit: 419 x 421 km, 51.6° (Epoch: 04 August)

Event Time Altitude Azimuth Distance (km) Brightness Sun altitude
Exits shadow 03:37:54 - 283° (WNW) 1,950 -0.5 -17.6°
Reaches altitude 10° 03:39:04 10° 290° (WNW) 1,504 -1.0 -17.5°
Maximum altitude 03:42:10 33° 357° (N) 727 -2.0 -17.3°
Drops below altitude 10° 03:45:17 10° 64° (ENE) 1,504 -0.2 -17.0°
Sets 03:47:31 0° 74° (ENE) 2,368 0.7 -16.9°
